Regional Weather Roundup
Issued by NWS Newport/Morehead, NC

Current Version | Previous Version | Graphics & Text | Print | Product List | Glossary On
Versions: 1 2 3 4 5 6 7 8 9 10 11 12 13 14 15 16 17 18 19 20 21 22 23 24 25 26 27 28 29 30 31 32 33 34 35 36 37 38 39 40 41 42 43 44 45 46 47 48 49 50
093 ASUS42 KMHX 121625 RWRMHX WEATHER ROUNDUP FOR EASTERN NORTH CAROLINA NATIONAL WEATHER SERVICE NEWPORT/MOREHEAD CITY NC 1100 AM EST FRI FEB 12 2016 NOTE: "FAIR" INDICATES FEW OR NO CLOUDS BELOW 12,000 FEET WITH NO SIGNIFICANT WEATHER AND/OR OBSTRUCTIONS TO VISIBILITY NCZ015>017-031-032-045>047-102-103-121700- NORTH COAST CITY SKY/WX TMP DP RH WIND PRES REMARKS EDENTON CLOUDY 35 21 57 E9 30.26F ELIZABETH CITY PTSUNNY 32 16 51 E8 30.27F KITTY HAWK CLOUDY 36 18 48 CALM 30.25F MANTEO CLOUDY 34 21 58 E10 30.26F $$ NCZ045>047-081-094-103-104-121700- CENTRAL COAST CITY SKY/WX TMP DP RH WIND PRES REMARKS FRISCO CLOUDY 38 25 59 E9G18 30.23F SWANQUARTER N/A 36 N/A N/A E9 30.21S $$ NCZ095-097-098-100-101-121700- SOUTHERN COAST CITY SKY/WX TMP DP RH WIND PRES REMARKS BEAUFORT RAIN 35 29 78 NE9 30.19F CEDAR ISLAND N/A 37 N/A N/A NE21 30.24F JACKSONVILLE CLOUDY 34 28 79 NE12G17 30.17F PINEY ISLAND LGT RAIN N/A N/A N/A NE14 30.21F WILMINGTON CLOUDY 35 29 78 NE12 30.15F $$ NCZ011>013-027>030-043-044-078>080-089-090>093-098-121700- COASTAL PLAIN CITY SKY/WX TMP DP RH WIND PRES REMARKS AHOSKIE CLOUDY 28 11 50 E3 30.26F CLINTON CLOUDY 34 16 48 NE7 30.20F ELIZABETHTOWN DRIZZLE 35 15 43 NE3 30.17F GOLDSBORO NOT AVBL GREENVILLE CLOUDY 34 19 55 E6 30.24F HAVELOCK LGT RAIN 36 31 82 E10 30.20F KENANSVILLE CLOUDY 32 20 60 CALM 30.19F KINSTON MOSUNNY 34 19 55 NE9 30.23F NEW BERN LGT RAIN 35 23 61 E9 30.22F RICHLANDS CLOUDY 32 25 74 N12 30.17F ROCKY MOUNT CLOUDY 31 14 49 NE9 30.23F WASHINGTON CLOUDY 34 20 58 E12 30.22F WHITEVILLE CLOUDY 36 17 47 NE9 30.16F $$ AMZ130-135-150-152-154-156-158-170-250-252-270-ANZ085-086-088-633-658-670-121700- MARINE OBSERVATIONS STATION/POSITION TIME TEMP WIND PRES WAVE SWELL AIR SEA DIR/SP/G HT/PER HT/PER (UTC) (F) (DEG/KT/KT) (MB) (FT/S) (FT/S) CHESAPEAKE LIGHT 1600 28 30/ 3/ 4 1025.6 64 E VA BEACH 1550 31 50 20/ 8/ 12 1024.6 3/ 6 3/ 6 DUCK 1600 32 80/ 7/ 9 1024.1 2 E DUCK 1511 43 N/A 3/ 6 OREGON INLET 1600 35 40 40/ 10/ 12 1024.5 13E OREGON INLT 1600 45 N/A 4/ 7 HATTERAS CG 1600 37 45 60/ 10/ 12 1022.9 DIAMOND BUOY 1550 45 71 60/ 12/ 17 1023.2 3/ 8 3/ 8 CAPE LOOKOUT NOT AVBL BEAUFORT LAB 1600 35 44 40/ 9/ 13 1021.0 30 SE NEW RVR IN 1608 50 59 1019.6 30 SE NEW RVR IN 1525 59 N/A 5/ 5 27 SE WRIGHTSVLE 1608 36 62 80/ 19/ 25 1018.3 5 SE WRIGHTSVLE 1508 43 51 60/ 21/ 27 1020.9 225 S CAPE HAT 1550 64 68 210/ 25/ 33 N/A 4/ 8 3/ 8 41 SE CHARLESTON 1550 59 68 250/ 17/ 19 1019.1 4/ 6 2/ 8 $$

USA.gov is the U.S. government's official web portal to all federal, state and local government web resources and services.